Skip Page Navigation
NASA JPL Caltech
NASA Logo - Jet Propulsion Laboratory + View the NASA Portal
+ Center for Near-Earth Object Studies
JPL Home Earth Solar System Stars & Galaxies Technology
JPL Solar System Dynamics
BODIES ORBITS EPHEMERIDES TOOLS PHYSICAL DATA DISCOVERY FAQ SITE MAP
JPL Small-Body Database Browser
Search: [ help ]  
2591 Dworetsky (1949 PS)
Classification: Main-belt Asteroid          SPK-ID: 2002591
Ephemeris | Orbit Diagram | Orbital Elements | Mission Design | Physical Parameters | Discovery Circumstances | Close-Approach Data ]

[ show orbit diagram ]
Orbital Elements at Epoch 2459200.5 (2020-Dec-17.0) TDB
Reference: JPL 37 (heliocentric ecliptic J2000)
 Element Value Uncertainty (1-sigma)   Units 
e .04132420950234381 2.205e-08  
a 2.937079847738003 1.1097e-08 au
q 2.815707344784965 6.1831e-08 au
i 1.541127385725085 3.1874e-07 deg
node 356.0433514384274 7.0803e-06 deg
peri 270.1471314803385 2.0782e-05 deg
M 115.2131567836284 1.7435e-05 deg
tp 2458612.101397554444
(2019-May-08.60139755)
8.8417e-05 TDB
period 1838.535656810506
5.03
1.042e-05
2.853e-08
d
yr
n .1958080054996205 1.1097e-09 deg/d
Q 3.05845235069104 1.1556e-08 au
  Orbit Determination Parameters
   # obs. used (total)      3038  
   data-arc span      31598 days (86.51 yr)  
   first obs. used      1934-09-02  
   last obs. used      2021-03-07  
   planetary ephem.      DE441  
   SB-pert. ephem.      SB441-N16  
   condition code      0  
   norm. resid. RMS      .44681  
   source      ORB  
   producer      Otto Matic  
   solution date      2021-Apr-12 13:59:14  

Additional Information
 Earth MOID = 1.79856 au 
 Jupiter MOID = 1.96541 au 
 T_jup = 3.272 
[ show covariance matrix ]

Ephemeris | Orbit Diagram | Orbital Elements | Mission Design | Physical Parameters | Discovery Circumstances | Close-Approach Data ]

Physical Parameter Table
Parameter Symbol Value Units Sigma Reference Notes
absolute magnitude H 11.53   n/a E2021B10  
diameter diameter 12.925 km 0.141 urn:nasa:pds:neowise_diameters_albedos::2.0[mainbelt] (http://adsabs.harvard.edu/abs/2014ApJ...791..121M)  
rotation period rot_per 12.77 h n/a LCDB (Rev. 2020-October); Warner et al., 2009 Result based on less than full coverage, so that the period may be wrong by 30 percent or so.
Published Reference List:
[Behrend, R. (2005) Observatoire de Geneve web site, http://obswww.unige.ch/~behrend/page_cou.html]
[Erasmus, N.; Navarro-Meza, S.; McNeill, A.; Trilling, D.E.; et al. (2020) Ap. J. Suppl. Ser. 247, A13.]
geometric albedo albedo 0.291   0.037 urn:nasa:pds:neowise_diameters_albedos::2.0[mainbelt] (http://adsabs.harvard.edu/abs/2014ApJ...791..121M)  

2591 Dworetsky (1949 PS)          Discovered 1949-Aug-02 by Reinmuth, K. at Heidelberg
Reference: DISCOVERY.DBLast Updated: 2003-08-29

[ show close-approach data ]
Alternate Designations
 1949 PS = 1929 RH1 = 1934 RD = 1949 QU = 1952 DC1 = 1962 BD = 1962 EH = 1969 OC = 1973 GQ = 1975 TU4 = 1978 GX3 = 1979 OD14 = 1981 YL2 = 1982 BO 
Ephemeris | Orbit Diagram | Orbital Elements | Mission Design | Physical Parameters | Discovery Circumstances | Close-Approach Data ]
ABOUT SSD CREDITS/AWARDS PRIVACY/COPYRIGHT GLOSSARY LINKS
FirstGov 2021-May-11 13:55 UT
(server date/time)  
NASA Home Page
Site Manager:   Ryan S. Park
Webmaster  Alan B. Chamberlin